KB4JAC-13 Weather Reports


time (UTC)temp
C
wind
direction
speed
KPH
gust
KPH
rain 1hr
cm
rain 24hr
cm
rain mn
cm
humidity
%
barometer
mb
20260906064741 22 57 3.2 4.8 0.00 0.00 0.00 97 988.1
20260906063742 22 47 0.0 0.0 0.00 0.00 0.00 99 987.8
20260906062740 22 47 0.0 0.0 0.00 0.00 0.00 99 987.7
20260906061739 22 49 0.0 0.0 0.00 0.00 0.00 99 987.8
20260906060738 22 43 0.0 0.0 0.00 0.00 0.00 99 987.5
20260906055737 22 48 0.0 0.0 0.00 0.00 0.00 99 987.5
20260906054736 22 50 0.0 0.0 0.00 0.00 0.00 99 987.5
20260906053735 22 50 0.0 0.0 0.00 0.00 0.00 99 987.4
20260906052734 22 43 0.0 0.0 0.00 0.00 0.00 99 987.4
20260906051733 22 43 0.0 0.0 0.00 0.00 0.00 99 987.5
20260906050733 22 44 0.0 0.0 0.00 0.00 0.00 99 987.4
20260906045732 22 46 0.0 0.0 0.00 0.00 0.00 99 987.6
20260906044732 22 46 0.0 0.0 0.00 0.00 0.00 99 987.8
20260906043730 22 46 0.0 0.0 0.00 0.00 0.00 99 988.2
20260906042730 22 46 0.0 0.0 0.00 0.00 0.00 99 988.1
20260906041729 22 45 0.0 0.0 0.00 0.00 0.00 99 987.8
20260906040728 23 46 0.0 0.0 0.00 0.00 0.00 99 988.1
20260906035727 22 49 0.0 0.0 0.00 0.00 0.05 99 988.1
20260906034726 22 47 0.0 0.0 0.00 0.00 0.05 98 988.0
20260906033725 23 46 0.0 0.0 0.00 0.00 0.05 98 988.0
20260906032724 23 46 0.0 0.0 0.00 0.00 0.05 98 988.2
20260906031723 23 43 0.0 0.0 0.00 0.00 0.05 97 988.2
20260906030722 23 47 0.0 1.6 0.00 0.00 0.05 97 988.0
20260906025721 23 50 0.0 0.0 0.00 0.00 0.05 97 988.1
20260906024720 23 50 0.0 0.0 0.00 0.00 0.05 96 988.2
20260906023719 23 50 0.0 0.0 0.00 0.00 0.05 96 987.9
20260906022719 23 49 0.0 0.0 0.00 0.00 0.05 96 987.6
20260906021718 23 53 0.0 0.0 0.00 0.00 0.05 96 987.6
20260906020717 23 49 0.0 0.0 0.00 0.00 0.05 96 987.4
20260906015716 23 49 0.0 0.0 0.00 0.00 0.05 96 987.5
20260906014715 23 50 0.0 0.0 0.00 0.00 0.05 96 987.5
20260906013714 24 51 0.0 0.0 0.00 0.00 0.05 95 987.2
20260906012713 24 50 0.0 0.0 0.00 0.00 0.05 94 987.2
20260906011712 24 50 0.0 0.0 0.00 0.00 0.05 93 987.1
20260906010711 25 54 0.0 0.0 0.00 0.00 0.05 92 987.1
20260906005710 25 54 0.0 0.0 0.00 0.00 0.05 91 986.9
20260906004709 25 37 0.0 0.0 0.00 0.00 0.05 91 986.8
20260906003708 25 28 0.0 0.0 0.00 0.00 0.05 91 986.5
20260906002708 25 10 0.0 0.0 0.00 0.00 0.05 90 986.7
20260906001707 25 7 0.0 0.0 0.00 0.00 0.05 88 987.0
20260906000706 26 0 0.0 0.0 0.00 0.00 0.05 87 986.8
20260905235705 26 9 0.0 0.0 0.00 0.00 0.05 85 986.9
20260905234705 27 11 0.0 0.0 0.00 0.00 0.05 82 986.9
20260905233704 27 23 0.0 1.6 0.00 0.00 0.05 79 987.0
20260905232703 28 357 0.0 0.0 0.00 0.00 0.05 78 986.6
20260905231702 28 30 0.0 1.6 0.00 0.00 0.05 77 987.0
20260905230701 28 9 0.0 0.0 0.00 0.00 0.05 76 986.3
20260905225700 28 7 0.0 0.0 0.00 0.00 0.05 75 986.6
20260905224659 28 358 0.0 0.0 0.00 0.00 0.05 73 986.6
20260905223658 29 12 0.0 0.0 0.00 0.00 0.05 75 986.6
20260905222658 29 13 0.0 0.0 0.00 0.00 0.05 73 986.6
20260905221657 30 10 0.0 0.0 0.00 0.00 0.05 71 986.7
20260905220656 30 22 0.0 0.0 0.00 0.00 0.05 69 986.9
20260905215655 31 11 0.0 0.0 0.00 0.00 0.05 64 987.0
20260905214654 32 11 0.0 1.6 0.00 0.00 0.05 62 986.9
20260905213653 32 292 4.8 6.4 0.00 0.00 0.05 61 987.2
20260905212652 33 2 0.0 9.7 0.00 0.00 0.05 61 987.4
20260905211651 32 0 0.0 1.6 0.00 0.00 0.05 64 987.4
20260905210650 33 1 0.0 4.8 0.00 0.00 0.05 58 987.3
20260905205649 32 46 3.2 4.8 0.00 0.00 0.05 65 987.2
20260905204648 30 37 1.6 3.2 0.00 0.00 0.05 68 987.4
20260905203647 30 7 1.6 3.2 0.00 0.00 0.05 69 987.4
20260905202649 30 53 1.6 1.6 0.00 0.00 0.05 64 987.6
20260905201646 29 63 0.0 6.4 0.00 0.00 0.05 67 987.3
20260905200645 29 348 0.0 3.2 0.00 0.00 0.05 68 987.6
20260905195644 31 18 6.4 24.1 0.00 0.00 0.05 65 987.3
20260905194643 35 11 0.0 1.6 0.00 0.00 0.05 56 987.0
20260905193643 36 7 0.0 1.6 0.00 0.00 0.05 53 987.1
20260905192642 36 41 1.6 3.2 0.00 0.00 0.05 52 987.1
20260905191641 36 321 3.2 6.4 0.00 0.00 0.05 50 987.3
20260905190640 34 19 0.0 3.2 0.00 0.00 0.05 56 987.4
20260905185640 35 2 0.0 0.0 0.00 0.00 0.05 56 987.7
20260905184639 36 273 1.6 6.4 0.00 0.00 0.05 55 987.6
20260905183638 33 8 1.6 3.2 0.00 0.00 0.05 60 987.5
20260905182637 32 93 3.2 3.2 0.00 0.00 0.05 70 987.7
20260905181636 29 2 0.0 0.0 0.00 0.00 0.05 89 988.0
20260905180636 28 12 0.0 0.0 0.00 0.00 0.05 96 988.1
20260905175635 29 9 0.0 0.0 0.00 0.00 0.05 93 988.1
20260905174634 30 13 0.0 0.0 0.00 0.00 0.05 88 988.1
20260905173633 35 28 3.2 4.8 0.00 0.00 0.00 63 988.4
20260905172632 36 358 3.2 9.7 0.00 0.00 0.00 54 988.1
20260905171631 37 2 0.0 3.2 0.00 0.00 0.00 54 988.1
20260905170631 35 348 1.6 4.8 0.00 0.00 0.00 58 988.3
20260905165630 36 32 0.0 4.8 0.00 0.00 0.00 56 988.3
20260905164630 36 50 1.6 6.4 0.00 0.00 0.00 55 988.4
20260905163629 35 13 1.6 6.4 0.00 0.00 0.00 57 988.8
20260905162628 36 15 1.6 1.6 0.00 0.00 0.00 56 988.9
20260905161627 35 114 1.6 6.4 0.00 0.00 0.00 59 988.9
20260905160626 35 9 1.6 3.2 0.00 0.00 0.00 59 988.8
20260905155625 35 13 0.0 1.6 0.00 0.00 0.00 58 989.0
20260905154624 35 12 1.6 3.2 0.00 0.00 0.00 58 989.0
20260905153623 35 45 1.6 3.2 0.00 0.00 0.00 58 989.2
20260905152622 33 29 3.2 3.2 0.00 0.00 0.00 63 989.2
20260905151621 33 27 1.6 3.2 0.00 0.00 0.00 65 989.4
20260905150620 32 24 1.6 1.6 0.00 0.00 0.00 66 989.3
20260905145620 32 20 0.0 1.6 0.00 0.00 0.00 67 989.5
20260905144619 32 322 0.0 1.6 0.00 0.00 0.00 68 989.5
20260905143618 32 19 3.2 3.2 0.00 0.00 0.00 68 989.7
20260905142617 31 12 0.0 1.6 0.00 0.00 0.00 69 989.6
20260905141616 31 34 1.6 1.6 0.00 0.00 0.00 73 989.7
20260905140615 31 29 0.0 1.6 0.00 0.00 0.00 73 989.8
20260905135614 29 335 1.6 1.6 0.00 0.00 0.00 79 989.9
20260905134613 30 14 0.0 0.0 0.00 0.00 0.00 76 989.9
20260905133612 29 17 0.0 0.0 0.00 0.00 0.00 78 989.8
20260905132611 29 9 0.0 0.0 0.00 0.00 0.00 81 990.1
20260905131611 27 13 0.0 0.0 0.00 0.00 0.00 84 989.9
20260905130610 27 22 0.0 1.6 0.00 0.00 0.00 86 990.2
20260905125609 26 22 0.0 0.0 0.00 0.00 0.00 90 990.1
20260905124608 24 13 0.0 0.0 0.00 0.00 0.00 96 990.1
20260905123607 23 14 0.0 0.0 0.00 0.00 0.00 99 989.9
20260905122606 23 12 0.0 0.0 0.00 0.00 0.00 99 989.9
20260905121605 22 12 0.0 0.0 0.00 0.00 0.00 99 990.0
20260905120604 22 15 0.0 0.0 0.00 0.00 0.00 99 989.9
20260905115603 22 15 0.0 0.0 0.00 0.00 0.00 99 989.6
20260905114602 22 15 0.0 0.0 0.00 0.00 0.00 99 989.6
20260905113602 22 17 0.0 0.0 0.00 0.00 0.00 99 989.5
20260905112601 22 11 0.0 0.0 0.00 0.00 0.00 99 989.5
20260905111600 22 11 0.0 0.0 0.00 0.00 0.00 99 989.1
20260905110559 22 11 0.0 0.0 0.00 0.00 0.00 99 989.1
20260905105558 22 11 0.0 0.0 0.00 0.00 0.00 99 988.8
20260905104557 22 11 0.0 0.0 0.00 0.00 0.00 99 988.9
20260905103556 22 11 0.0 0.0 0.00 0.00 0.00 99 988.7
20260905102555 22 4 0.0 0.0 0.00 0.00 0.00 99 988.8
20260905101554 22 7 0.0 0.0 0.00 0.00 0.00 99 988.8
20260905100553 22 17 0.0 0.0 0.00 0.00 0.00 99 989.0
20260905095552 22 7 0.0 0.0 0.00 0.00 0.00 99 988.9
20260905094552 22 7 0.0 0.0 0.00 0.00 0.00 99 988.7
20260905093551 22 7 0.0 0.0 0.00 0.00 0.00 99 988.8
20260905092550 22 9 0.0 0.0 0.00 0.00 0.00 99 988.8
20260905091549 22 5 0.0 0.0 0.00 0.00 0.00 99 988.7
20260905090548 23 5 0.0 0.0 0.00 0.00 0.00 99 988.5
20260905085547 23 5 0.0 0.0 0.00 0.00 0.00 99 988.8
20260905084546 23 19 0.0 1.6 0.00 0.00 0.00 99 988.6
20260905083545 23 11 0.0 0.0 0.00 0.00 0.00 99 988.5
20260905082544 23 11 0.0 0.0 0.00 0.00 0.00 98 988.6
20260905081543 23 10 0.0 0.0 0.00 0.00 0.00 98 988.5
20260905080542 23 23 0.0 1.6 0.00 0.00 0.00 99 988.5
20260905075541 23 6 0.0 0.0 0.00 0.00 0.00 99 988.4
20260905074540 23 4 0.0 0.0 0.00 0.00 0.00 99 988.6
20260905073540 23 7 0.0 0.0 0.00 0.00 0.00 99 988.6
20260905072539 23 10 0.0 0.0 0.00 0.00 0.00 98 988.6
20260905071538 23 11 0.0 0.0 0.00 0.00 0.00 98 988.3
20260905070537 24 11 0.0 0.0 0.00 0.00 0.00 98 988.6
20260905065536 24 11 0.0 0.0 0.00 0.00 0.00 97 988.5